Location: Étang Rond
(42.7927°N, 1.0661°E)
Time: 01:13:50
(UTC+00:00)

Cosmos 1703 Rocket - Pass Details

Date: 08 November 2025
Orbit: 599 x 625 km, 82.5° (Epoch: 07 December)

Event Time Altitude Azimuth Distance (km) Brightness Sun altitude
Rises 05:09:14 0° 198° (SSW) 2,849 6.9 -16.7°
Reaches altitude 10° 05:11:29 10° 204° (SSW) 1,954 6.0 -16.3°
Maximum altitude 05:15:42 53° 281° (W) 756 3.6 -15.5°
Drops below altitude 10° 05:20:00 10° 359° (N) 1,985 6.0 -14.7°
Sets 05:22:18 0° 4° (N) 2,899 6.9 -14.3°
